Hourly Data Report for March 30, 2020

MAYO A
YUKON TERRITORY
Current Station Operator: NAVCAN

63°36'59.000" N
135°52'06.000" W
503.80 m
2100701
71965
YMA

Download Data

Hourly Data (March 2020)
Hourly Data Report for March 30, 2020
TIME
LST
Temp Definition
°C
Dew Point Definition
°C
Rel Hum Definition
%
Precip. Amount Definition
mm

Wind Dir Definition
10's deg

Wind Spd Definition
km/h
Visibility Definition
km
Stn Press Definition
kPa
Hmdx Definition


Wind Chill Definition


Weather Definition


00:00 -17.2 -27.9 40   35 20 32.2 96.51   -27 LegendNANA
01:00 -18.0 -28.2 41   36 21 32.2 96.57   -28 Clear
02:00 -19.1 -28.6 44   3 14 32.2 96.62   -28 LegendNANA
03:00 -20.4 -28.9 47   1 14 32.2 96.66   -29 LegendNANA
04:00 -20.9 -29.3 48   1 16 32.2 96.69   -31 Clear
05:00 -22.4 -29.4 54   3 13 32.2 96.74   -31 LegendNANA
06:00 -23.6 -29.1 61   2 18 32.2 96.76   -34 LegendNANA
07:00 -24.0 -30.8 54   3 16 32.2 96.81   -34 Clear
08:00 -23.1 -30.5 51   1 17 32.2 96.85   -34 LegendNANA
09:00 -21.0 -29.5 47   3 15 32.2 96.86   -30 LegendNANA
10:00 -19.1 -28.8 43   2 8 32.2 96.85   -25 Clear
11:00 -17.4 -27.4 42   11 6 32.2 96.81   -22 LegendNANA
12:00 -15.0 -27.1 36   11 8 32.2 96.79   -20 LegendNANA
13:00 -13.0 -27.3 30   10 8 32.2 96.74   -18 Clear
14:00 -11.5 -27.3 26   5 5 32.2 96.70   -15 LegendNANA
15:00 -10.2 -26.7 25   3 10 32.2 96.63   -15 LegendNANA
16:00 -9.9 -27.1 24   7 5 32.2 96.61   -13 Clear
17:00 -9.4 -27.3 22   13 5 32.2 96.62   -12 LegendNANA
18:00 -9.4 -27.4 22   14 6 32.2 96.59   -13 LegendNANA
19:00 -9.5 -27.9 21   12 7 32.2 96.61   -13 Clear
20:00 -15.2 -26.8 37   8 3 32.2 96.65   -17 LegendNANA
21:00 -19.6 -26.5 55   27 7 32.2 96.67   -25 LegendNANA
22:00 -18.8 -27.6 47   36 5 32.2 96.71   -23 Clear
23:00 -18.0 -28.3 41   36 10 32.2 96.78   -25 LegendNANA

Notes on Data Quality.

Legend

  • E = Estimated
  • M = Missing
  • NA = Not Available*
  • [empty] = Indicates an unobserved value
Date modified: